Location: L�Ave Maria
(50.7161°N, 1.5911°E)
Time: 12:32:09
(UTC+00:00)

Cosmos 1943 - Pass Details

Date: 10 July 2020
Orbit: 835 x 848 km, 71.0° (Epoch: 07 August)

Event Time Altitude Azimuth Distance (km) Brightness Sun altitude
Exits shadow 23:23:17 27° 160° (SSE) 1,576 4.0 -16.8°
Maximum altitude 23:25:47 42° 109° (ESE) 1,194 3.8 -16.8°
Drops below altitude 10° 23:31:04 10° 40° (NE) 2,470 6.2 -16.9°
Sets 23:33:38 0° 34° (NE) 3,407 7.2 -17.0°
